Weather History for KJHW - September, 2011

Change the Weather History Date:

Tuesday, September 13, 2011

  Actual Average Record
Temperature  
Mean Temperature 68 °F -  
Max Temperature 78 °F 74 °F 129 °F (1996)
Min Temperature 59 °F 46 °F 28 °F (1985)
Cooling Degree Days 4    
Growing Degree Days 18 (Base 50)    
Moisture  
Dew Point 59 °F    
Average Humidity 77    
Maximum Humidity 94    
Minimum Humidity 50    
Precipitation  
Precipitation 0.00 in - - ()
Sea Level Pressure  
Sea Level Pressure 29.90 in    
Wind  
Wind Speed 9 mph (SW)    
Max Wind Speed 21 mph    
Max Gust Speed 30 mph    
Visibility 8 miles    
Events Thunderstorm    
Averages and records for this station are not official NWS values.
T = Trace of Precipitation, MM = Missing Value Source: NWS Daily Summary

Daily Weather History Graph

Daily Weather History Graph

Search for Another Location

Airport or City:

Trip Planner

Search our weather history database for the weather conditions in past years. The results will help you decide how hot, cold, wet, or windy it might be!

Date:

Astronomy

Sep. 13, 2011 Rise Set
Actual Time 6:54 AM EDT 7:30 PM EDT
Civil Twilight 6:26 AM EDT 7:58 PM EDT
Nautical Twilight 5:53 AM EDT 8:31 PM EDT
Astronomical Twilight 5:18 AM EDT 9:06 PM EDT
Moon 7:42 PM EDT (9/13) 8:09 AM EDT (9/13)
Length of Visible Light 13h 32m
Length of Day
12h 35m
Full, 99% of the Moon is Illuminated
Sep 13
Full
Sep 20
Last Quarter
Sep 27
New
Oct 3
First Quarter
Oct 11
Full

Hourly Weather History & Observations

Time (EDT) Temp. Dew Point Humidity Pressure Visibility Wind Dir Wind Speed Gust Speed Precip Events Conditions
12:15 AM 60.8 °F 59.0 °F 94% 29.98 in 8.0 mi South 6.9 mph - N/A   Clear
12:35 AM 60.8 °F 59.0 °F 94% 29.98 in 5.0 mi South 6.9 mph - N/A   Clear
1:15 AM 60.8 °F 57.2 °F 88% 29.97 in 5.0 mi South 6.9 mph - N/A   Clear
1:35 AM 60.8 °F 57.2 °F 88% 29.97 in 4.0 mi South 6.9 mph - N/A   Clear
1:55 AM 60.8 °F 57.2 °F 88% 29.97 in 5.0 mi South 6.9 mph - N/A   Clear
2:15 AM 60.8 °F 57.2 °F 88% 29.96 in 5.0 mi SSW 6.9 mph - N/A   Clear
2:35 AM 60.8 °F 57.2 °F 88% 29.96 in 10.0 mi SSW 8.1 mph - N/A   Clear
2:55 AM 60.8 °F 57.2 °F 88% 29.95 in 10.0 mi SSW 8.1 mph - N/A   Clear
3:15 AM 60.8 °F 57.2 °F 88% 29.95 in 9.0 mi South 9.2 mph - N/A   Clear
3:35 AM 60.8 °F 57.2 °F 88% 29.94 in 6.0 mi South 6.9 mph - N/A   Scattered Clouds
3:55 AM 60.8 °F 57.2 °F 88% 29.94 in 5.0 mi South 6.9 mph - N/A   Partly Cloudy
4:15 AM 59.0 °F 57.2 °F 94% 29.93 in 5.0 mi South 6.9 mph - N/A   Clear
4:35 AM 59.0 °F 57.2 °F 94% 29.93 in 4.0 mi South 6.9 mph - N/A   Clear
4:55 AM 59.0 °F 57.2 °F 94% 29.93 in 3.0 mi South 8.1 mph - N/A   Clear
5:15 AM 59.0 °F 57.2 °F 94% 29.92 in 3.0 mi South 6.9 mph - N/A   Clear
5:35 AM 59.0 °F 57.2 °F 94% 29.92 in 5.0 mi South 6.9 mph - N/A   Clear
5:55 AM 60.8 °F 57.2 °F 88% 29.91 in 8.0 mi South 8.1 mph - N/A   Clear
6:15 AM 60.8 °F 57.2 °F 88% 29.91 in 8.0 mi South 9.2 mph - N/A   Clear
6:35 AM 60.8 °F 57.2 °F 88% 29.91 in 7.0 mi South 8.1 mph - N/A   Clear
6:55 AM 60.8 °F 57.2 °F 88% 29.91 in 5.0 mi SSW 6.9 mph - N/A   Clear
7:15 AM 60.8 °F 57.2 °F 88% 29.91 in 7.0 mi South 8.1 mph - N/A   Clear
7:35 AM 60.8 °F 57.2 °F 88% 29.91 in 7.0 mi South 9.2 mph - N/A   Clear
7:55 AM 60.8 °F 57.2 °F 88% 29.91 in 8.0 mi South 10.4 mph - N/A   Clear
8:15 AM 62.6 °F 57.2 °F 82% 29.91 in 9.0 mi South 10.4 mph - N/A   Clear
8:35 AM 62.6 °F 59.0 °F 88% 29.91 in 10.0 mi SSW 10.4 mph - N/A   Clear
8:55 AM 64.4 °F 59.0 °F 83% 29.91 in 10.0 mi SSW 8.1 mph - N/A   Clear
9:15 AM 64.4 °F 59.0 °F 83% 29.90 in 10.0 mi South 13.8 mph 18.4 mph N/A   Clear
9:35 AM 66.2 °F 59.0 °F 78% 29.90 in 10.0 mi SSW 12.7 mph 18.4 mph N/A   Clear
9:55 AM 68.0 °F 59.0 °F 73% 29.90 in 10.0 mi SW 12.7 mph - N/A   Clear
10:15 AM 69.8 °F 59.0 °F 68% 29.91 in 10.0 mi SW 12.7 mph 18.4 mph N/A   Partly Cloudy
10:55 AM 71.6 °F 60.8 °F 69% 29.90 in 10.0 mi SW 13.8 mph 19.6 mph N/A   Scattered Clouds
11:15 AM 71.6 °F 60.8 °F 69% 29.89 in 10.0 mi SW 13.8 mph 20.7 mph N/A   Partly Cloudy
11:55 AM 73.4 °F 60.8 °F 65% 29.88 in 10.0 mi SW 18.4 mph 27.6 mph N/A   Clear
12:15 PM 75.2 °F 57.2 °F 53% 29.88 in 10.0 mi SW 17.3 mph 26.5 mph N/A   Clear
12:35 PM 75.2 °F 57.2 °F 53% 29.88 in 10.0 mi SW 18.4 mph 29.9 mph N/A   Clear
12:55 PM 75.2 °F 57.2 °F 53% 29.87 in 10.0 mi SW 20.7 mph 26.5 mph N/A   Partly Cloudy
1:15 PM 75.2 °F 57.2 °F 53% 29.87 in 10.0 mi SW 19.6 mph 26.5 mph N/A   Mostly Cloudy
1:35 PM 75.2 °F 57.2 °F 53% 29.87 in 10.0 mi SW 17.3 mph 26.5 mph N/A   Mostly Cloudy
2:15 PM 77.0 °F 57.2 °F 50% 29.86 in 10.0 mi SW 19.6 mph 26.5 mph N/A   Partly Cloudy
2:55 PM 78.8 °F 59.0 °F 51% 29.84 in 10.0 mi SW 13.8 mph 26.5 mph N/A   Scattered Clouds
3:15 PM 78.8 °F 59.0 °F 51% 29.84 in 10.0 mi SW 15.0 mph 23.0 mph N/A   Partly Cloudy
3:35 PM 77.0 °F 60.8 °F 57% 29.84 in 10.0 mi SW 17.3 mph 23.0 mph N/A   Scattered Clouds
3:55 PM 77.0 °F 59.0 °F 54% 29.84 in 10.0 mi SW 18.4 mph 24.2 mph N/A   Scattered Clouds
4:15 PM 75.2 °F 59.0 °F 57% 29.84 in 10.0 mi SSW 13.8 mph 25.3 mph N/A   Mostly Cloudy
4:35 PM 77.0 °F 59.0 °F 54% 29.83 in 10.0 mi SW 13.8 mph 28.8 mph N/A   Overcast
4:55 PM 75.2 °F 60.8 °F 61% 29.84 in 10.0 mi SW 12.7 mph 18.4 mph N/A   Overcast
5:15 PM 75.2 °F 60.8 °F 61% 29.84 in 10.0 mi SW 11.5 mph 20.7 mph N/A   Mostly Cloudy
5:35 PM 75.2 °F 60.8 °F 61% 29.84 in 10.0 mi SW 9.2 mph - N/A   Mostly Cloudy
5:55 PM 73.4 °F 60.8 °F 65% 29.85 in 10.0 mi WSW 8.1 mph - N/A   Overcast
6:15 PM 71.6 °F 62.6 °F 73% 29.85 in 10.0 mi WNW 10.4 mph - N/A   Overcast
6:35 PM 71.6 °F 62.6 °F 73% 29.86 in 10.0 mi WNW 15.0 mph 18.4 mph N/A Thunderstorm Mostly Cloudy
6:55 PM 69.8 °F 62.6 °F 78% 29.87 in 10.0 mi West 12.7 mph 20.7 mph N/A Thunderstorm Mostly Cloudy
7:15 PM 69.8 °F 60.8 °F 73% 29.87 in 10.0 mi West 10.4 mph - N/A Thunderstorm Mostly Cloudy
7:35 PM 69.8 °F 60.8 °F 73% 29.87 in 10.0 mi West 9.2 mph - N/A   Overcast
8:35 PM 66.2 °F 60.8 °F 83% 29.88 in 10.0 mi WSW 4.6 mph - N/A   Mostly Cloudy
8:55 PM 66.2 °F 62.6 °F 88% 29.89 in 10.0 mi West 4.6 mph - N/A   Overcast
9:15 PM 66.2 °F 62.6 °F 88% 29.89 in 10.0 mi SW 3.5 mph - N/A   Overcast
9:35 PM 66.2 °F 62.6 °F 88% 29.90 in 10.0 mi WNW 4.6 mph - N/A   Overcast
9:55 PM 66.2 °F 62.6 °F 88% 29.90 in 9.0 mi NNW 8.1 mph - N/A   Overcast
10:15 PM 64.4 °F 60.8 °F 88% 29.91 in 5.0 mi NNW 9.2 mph - N/A   Overcast
10:35 PM 62.6 °F 60.8 °F 94% 29.91 in 7.0 mi North 8.1 mph - N/A   Mostly Cloudy
10:55 PM 62.6 °F 60.8 °F 94% 29.92 in 7.0 mi NNW 6.9 mph - N/A   Overcast
11:15 PM 62.6 °F 60.8 °F 94% 29.93 in 7.0 mi North 10.4 mph - N/A   Overcast
11:35 PM 62.6 °F 59.0 °F 88% 29.93 in 7.0 mi North 9.2 mph - N/A   Overcast